Theta_e
313 313 312 312 313 312 311 307 302 298 300 309 306 313 312 311 311 312 311 311 311 310 310 311 312 311 310 311 315 316 320 324 329 329 328 326 326 327
312 313 313 313 312 312 311 309 305 302 299 307 309 311 311 310 311 310 310 310 310 309 310 310 311 310 309 309 312 314 316 321 325 325 325 328 328 329
313 313 312 311 311 311 308 308 307 307 301 307 310 311 311 310 309 309 309 307 307 309 310 310 310 309 308 308 310 312 313 315 319 323 323 324 326 327
312 313 310 311 312 312 310 311 310 310 305 302 307 307 307 311 309 308 306 307 307 308 309 309 309 309 308 308 309 311 310 312 314 316 321 322 323 325
312 312 311 312 312 311 311 310 310 308 307 304 302 305 306 309 308 309 307 308 306 309 309 309 309 309 308 308 308 310 308 307 309 310 314 319 321 322
312 312 312 311 310 310 310 308 307 306 307 305 303 303 304 308 309 305 302 307 307 308 310 310 309 310 310 309 310 310 308 306 305 306 307 311 313 315
312 311 311 308 306 305 307 309 309 305 304 302 301 302 302 303 301 304 302 302 304 308 307 308 306 306 309 312 309 310 307 306 305 306 306 306 308 310
310 311 311 310 308 306 304 303 304 303 302 301 301 301 302 303 303 302 300 298 297 307 305 306 306 305 307 312 307 305 305 305 304 305 305 305 308 307
310 309 308 307 307 306 306 306 307 304 304 303 302 302 302 304 304 302 302 299 300 306 307 304 307 304 307 311 306 305 304 303 303 303 303 305 304 304
308 307 306 305 303 300 306 309 310 311 309 306 305 307 306 306 304 304 303 304 307 307 309 301 306 304 307 310 306 305 303 301 301 301 302 303 302 301
306 305 302 302 295 295 305 306 309 309 306 303 302 300 299 299 302 305 304 299 301 304 307 304 306 307 309 311 310 306 304 303 300 301 300 301 302 301
305 304 296 296 293 293 303 304 304 304 306 308 312 310 308 310 305 309 306 300 300 300 306 302 302 304 302 308 310 311 312 306 300 300 300 301 301 318
300 300 300 293 292 292 293 298 296 297 305 308 310 311 310 310 308 307 311 306 301 301 307 304 302 303 302 303 305 307 308 309 311 310 301 299 299 303
298 299 299 292 291 292 295 291 292 297 305 306 307 307 307 306 307 308 314 311 309 305 306 307 303 302 301 300 300 305 305 308 308 306 308 304 300 298
297 294 292 292 293 296 293 293 296 301 302 302 302 304 305 305 310 313 313 315 318 317 312 305 303 302 302 299 299 300 301 305 306 305 305 305 304 305
297 297 294 294 293 295 298 299 300 299 299 300 301 304 307 307 309 310 308 307 309 310 313 305 302 301 300 300 299 297 299 300 302 305 303 303 301 302
295 297 295 295 295 296 297 297 298 298 298 299 300 301 303 305 306 309 308 308 305 304 305 307 302 300 299 301 298 299 301 299 300 301 305 299 299 297
294 293 293 293 293 294 295 295 296 296 297 298 299 299 300 302 301 304 306 305 303 303 305 306 306 305 303 300 300 298 300 298 298 301 301 302 298 297
292 292 291 292 292 293 294 294 294 295 297 297 297 297 298 299 301 302 302 302 303 301 303 306 304 302 300 299 303 297 297 297 298 302 300 300 302 302
291 290 290 291 291 292 293 293 294 295 295 296 297 297 298 298 298 299 299 299 299 301 301 303 303 303 301 299 297 301 293 299 298 298 302 304 304 295
289 289 290 290 290 292 293 293 294 293 294 295 296 296 297 297 297 298 299 293 294 297 297 298 300 292 309 307 301 301 305 295 299 302 302 304 304 305
289 289 289 289 290 290 291 293 293 294 294 294 295 296 297 297 296 296 297 298 298 297 298 300 301 303 305 301 298 299 298 302 302 297 296 296 297 295
288 288 288 288 289 290 290 291 292 293 293 293 294 295 296 296 297 297 296 297 297 297 299 299 300 300 298 297 297 299 297 297 300 300 302 296 296 296
Wind_Speed
7 6 5 5 5 5 5 5 4 7 8 12 12 15 14 13 16 16 14 22 22 20 17 20 20 21 22 21 21 22 20 17 14 16 22 21 23 20
5 6 6 6 6 5 6 6 4 4 6 12 13 15 16 14 17 18 17 22 20 21 21 20 19 20 23 22 21 21 21 17 14 15 12 14 16 14
6 6 8 7 6 6 6 6 6 7 10 12 12 15 17 17 17 17 17 13 12 21 21 21 19 21 21 20 20 20 21 16 13 12 16 15 16 16
6 7 8 6 8 7 6 9 8 9 9 15 15 12 15 15 16 15 12 13 13 18 20 20 20 19 18 18 16 18 21 11 10 9 12 15 14 18
7 6 7 8 9 9 9 9 9 9 10 9 11 10 10 13 14 14 16 15 8 17 17 16 16 15 15 14 14 14 19 14 9 7 9 11 11 13
6 7 8 10 11 11 9 9 9 10 10 9 10 10 9 13 13 13 12 13 14 12 15 14 17 17 14 9 11 16 17 17 15 10 8 12 14 12
7 7 7 9 11 11 8 10 10 9 9 9 9 8 9 12 12 12 10 10 12 9 13 10 9 9 10 9 13 14 15 15 14 13 7 8 14 14
7 8 7 7 12 11 10 10 10 8 10 8 7 10 11 12 9 10 8 9 8 4 12 10 8 9 9 9 15 14 14 16 12 14 11 6 12 14
8 8 9 8 11 13 12 8 5 4 5 9 10 10 11 11 11 11 11 10 9 12 10 8 9 8 6 7 14 13 14 16 15 11 11 9 6 13
8 9 10 11 12 14 12 11 10 9 9 8 10 11 11 12 10 9 9 10 11 6 9 7 9 9 4 7 12 14 13 13 13 13 8 6 4 4
6 8 12 11 13 15 11 12 11 10 8 6 9 10 12 11 10 7 7 7 8 7 7 6 10 10 6 8 8 10 8 13 10 12 12 7 6 8
6 7 13 12 12 13 10 11 11 13 15 16 13 11 12 12 12 9 5 6 4 5 6 6 7 8 6 6 7 8 11 15 10 13 14 11 6 2
6 7 8 13 11 13 11 11 11 13 11 9 9 9 10 12 11 10 8 4 4 3 5 4 4 5 4 5 5 7 8 8 7 7 10 12 15 11
7 6 7 12 9 8 11 13 13 10 8 8 9 10 11 11 12 10 11 6 4 7 8 7 3 5 4 4 4 5 6 7 7 7 7 6 11 17
7 8 8 8 8 6 9 12 10 9 9 9 10 10 10 9 11 12 12 13 11 10 3 5 4 5 5 5 5 5 6 5 7 5 6 8 8 7
4 5 5 5 3 6 8 10 10 10 10 9 10 10 10 10 10 10 8 9 8 9 11 6 6 6 5 5 4 5 6 5 6 5 5 7 8 8
5 5 8 9 10 11 10 11 10 11 11 10 10 11 11 11 11 11 10 10 7 8 9 9 3 3 4 8 5 7 7 5 6 6 1 3 5 6
5 7 8 9 10 10 10 11 11 12 11 11 10 10 11 11 12 11 12 10 9 9 9 8 9 5 1 2 9 7 6 6 5 7 5 1 2 3
8 8 8 9 9 9 9 9 10 10 11 10 10 11 11 11 12 11 11 13 11 9 9 8 8 7 6 6 3 9 7 6 8 7 5 4 3 4
8 9 9 8 8 9 9 9 9 10 10 11 11 11 11 11 11 12 12 12 11 12 9 8 9 9 6 5 4 5 6 7 6 6 6 2 1 2
8 8 8 8 8 8 8 8 9 9 10 10 10 11 12 11 12 12 11 10 9 10 11 10 10 11 6 5 4 8 6 3 4 8 9 6 6 6
7 7 7 8 8 8 8 8 9 9 10 10 10 11 11 11 12 13 12 12 12 9 7 7 10 9 9 9 8 9 8 9 1 6 2 4 5 6
7 7 7 7 7 8 9 8 9 9 10 11 10 10 11 11 11 11 12 12 12 13 11 10 8 8 10 10 9 8 14 11 6 8 8 4 4 6
Wind_Direction
53 48 42 25 21 4 356 7 338 327 333 351 348 346 346 342 336 335 333 331 333 326 322 325 325 324 330 326 328 332 319 316 231 193 174 166 166 188
57 45 33 21 23 15 9 12 360 319 309 339 338 344 347 346 347 345 340 336 327 331 331 328 327 320 327 324 325 330 328 310 259 210 228 185 175 181
51 49 41 27 15 13 359 351 344 340 320 320 330 340 339 344 351 347 344 344 330 332 332 333 327 322 321 320 323 330 335 318 319 243 217 213 193 195
48 49 36 22 10 11 349 353 343 338 328 322 329 328 336 341 342 350 348 344 340 336 333 327 324 321 326 319 327 329 340 305 315 304 227 207 200 205
49 44 35 21 17 5 358 351 343 336 335 328 319 324 325 341 339 351 356 341 345 336 341 326 322 328 330 328 327 336 351 337 332 316 259 211 191 172
53 40 29 24 14 2 358 353 341 333 335 329 322 323 326 335 343 344 337 343 343 334 341 337 352 351 347 337 343 353 350 352 340 333 268 214 176 154
49 24 28 9 1 354 340 343 338 335 327 327 322 320 328 336 343 337 332 330 328 331 344 339 351 343 348 354 7 350 345 346 353 351 291 213 171 149
25 13 358 358 352 336 326 312 307 321 322 322 316 328 324 328 326 321 331 336 340 337 334 331 357 344 350 16 5 354 351 355 350 12 16 180 164 154
13 360 352 1 350 341 329 306 296 268 295 318 324 325 317 322 319 318 331 323 323 322 338 331 358 342 336 344 360 2 2 8 3 12 20 17 121 132
13 5 358 353 6 343 324 339 354 355 352 343 333 328 323 318 316 316 312 315 336 350 354 330 344 336 321 347 2 358 0 10 7 13 29 55 115 86
15 22 7 358 0 343 332 345 347 360 347 309 289 290 291 296 314 318 339 332 337 341 22 322 354 339 327 356 355 353 0 8 22 16 32 29 79 121
1 9 59 6 352 355 352 352 350 352 343 345 355 354 354 359 347 347 314 325 319 311 25 339 338 348 330 354 348 356 360 10 67 32 27 34 26 112
0 3 20 358 0 358 346 11 347 316 336 340 350 358 5 3 352 338 329 332 317 288 316 335 311 333 319 311 322 1 354 4 21 43 73 36 35 37
8 12 14 345 348 16 7 339 316 312 352 354 356 0 1 353 339 333 341 341 288 266 296 333 306 337 318 312 333 338 347 15 26 24 27 68 73 59
17 4 337 335 338 31 16 351 347 6 2 2 355 352 351 336 336 359 359 352 352 25 10 12 359 335 354 343 324 342 342 358 14 28 35 40 37 30
4 14 344 322 18 5 17 22 17 8 358 357 352 344 334 354 357 8 351 349 340 4 25 42 28 19 356 7 356 344 354 356 347 11 53 58 44 39
331 18 21 19 18 18 20 19 15 8 8 359 354 350 349 351 357 358 4 358 1 347 4 4 32 63 41 9 11 4 2 358 347 343 54 74 55 40
48 30 29 26 22 14 13 9 12 10 4 359 1 357 355 353 354 356 357 2 358 352 354 360 356 353 283 94 46 7 8 354 347 348 357 37 86 57
48 38 31 21 20 15 11 11 10 9 1 5 5 2 360 357 358 1 1 358 354 350 351 354 4 1 351 357 1 48 1 348 347 8 17 6 16 43
39 36 29 20 16 16 7 7 6 8 7 6 8 7 5 1 4 4 8 357 352 348 350 358 356 354 345 343 321 338 53 354 355 352 6 312 324 133
30 35 28 21 12 15 8 1 4 6 2 4 8 7 5 6 6 5 5 4 348 360 350 351 344 314 353 360 4 1 4 149 356 360 348 348 348 17
34 35 25 22 13 10 7 0 2 6 6 6 8 5 4 8 8 6 6 4 5 1 344 346 351 356 9 25 7 359 355 349 154 205 133 12 355 354
31 30 28 23 15 12 7 4 2 4 5 2 2 1 2 6 7 8 9 8 14 2 358 0 10 13 18 9 2 10 5 360 352 359 7 213 245 266